[[{"header":{"parameterUnit":"m.s-1","parameterCategory":1,"la1":30.2991,"la2":30.254,"lo1":-89.0895,"lo2":-89.0444,"dx":0.0017,"dy":0.0017,"nx":28,"ny":28,"refTime":"2022-12-05T15:00:00:Z","depth":0,"parameterNumber":2,"parameterNumberName":"U-component_of_WINDS"},"data":[0,0,0,0,0,0,0,0,0,0,0,0,0,0,0,0,0,0,0,0,0,0,0,0,0,0,0,0,0,0,0,0,0,0,0,0,0,0,0,0,0,0,0,0,0,0,0,0,0,0,0,0,0,0,0,0,0,0,-1.5351,-1.5351,0,-1.5376,-1.5376,-1.5376,-1.5353,-1.5352,-1.5351,-1.535,-1.5376,-1.5377,-1.5379,0,0,0,0,0,0,0,0,0,0,0,0,0,-1.5284,-1.5286,-1.5351,-1.5351,-1.5352,-1.5376,-1.5376,-1.5376,-1.5353,-1.5352,-1.5351,-1.535,-1.5375,-1.5377,-1.5379,0,0,0,0,0,0,0,0,0,0,0,0,0,-1.5312,-1.5286,-1.5351,-1.5343,-1.5343,-1.5376,-1.5376,-1.5376,-1.5353,-1.5352,-1.5351,-1.5349,-1.5375,-1.5377,-1.5379,-1.5421,0,0,-1.5386,-1.5387,0,0,0,0,0,0,0,0,-1.531,-1.5314,-1.5344,-1.5344,-1.5343,-1.536,-1.5362,-1.5391,-1.5354,-1.5349,-1.535,-1.5349,-1.5372,-1.5374,-1.5382,-1.5422,-1.5424,-1.5386,-1.5388,-1.5389,-1.5389,0,0,0,0,0,0,0,-1.5308,-1.5313,-1.5361,-1.5344,-1.5344,-1.5338,-1.5341,-1.5367,-1.5368,-1.535,-1.5348,-1.5351,-1.5371,-1.538,-1.5382,-1.5424,-1.5386,-1.5388,-1.539,-1.5391,-1.55,-1.5501,0,0,0,0,0,0,-1.5307,-1.5311,-1.536,-1.5362,-1.5323,-1.5341,-1.5343,-1.5356,-1.5368,-1.5368,-1.5352,-1.535,-1.5376,-1.5379,-1.5383,-1.5432,-1.5389,-1.5391,-1.5392,-1.5498,-1.55,-1.5502,0,0,0,0,0,0,-1.5306,-1.5312,-1.5359,-1.5336,-1.5342,-1.5343,-1.5358,-1.5357,-1.5365,-1.537,-1.537,-1.5361,-1.5375,-1.538,-1.5412,-1.5433,-1.5392,-1.5394,-1.5496,-1.5499,-1.5501,-1.5531,0,0,0,0,0,0,-1.5304,-1.5311,-1.5327,-1.5337,-1.5343,-1.5387,-1.5359,-1.5359,-1.5369,-1.5367,-1.5378,-1.5378,-1.5375,-1.5408,-1.5414,-1.5435,-1.5396,-1.5494,-1.5497,-1.55,-1.5528,-1.5534,-1.5539,0,0,0,0,0,-1.5302,-1.5335,-1.5328,-1.5334,-1.5363,-1.5389,-1.5392,-1.5387,-1.5371,-1.5387,-1.539,-1.5378,-1.543,-1.5412,-1.5418,-1.544,-1.5493,-1.5497,-1.55,-1.5526,-1.5533,-1.5539,0,0,0,0,0,0,-1.5329,-1.5336,-1.5329,-1.5366,-1.5377,-1.5385,-1.5405,-1.5395,-1.5411,-1.5408,-1.5401,-1.5404,-1.5437,-1.5442,-1.5422,-1.5481,-1.5459,-1.5464,-1.5477,-1.5483,-1.5489,-1.5486,-1.5398,0,0,0,0,0,-1.5339,-1.5359,-1.5365,-1.5397,-1.5403,-1.5403,-1.5414,-1.5409,-1.542,-1.5425,-1.543,-1.5441,-1.546,-1.5472,-1.549,-1.553,-1.5531,-1.5548,-1.5553,-1.5558,-1.5562,-1.5582,-1.5589,-1.5513,-1.5513,-1.5513,0,0,-1.536,-1.5367,-1.538,-1.5403,-1.5411,-1.5431,-1.5407,-1.543,-1.5445,-1.5428,-1.5458,-1.5463,-1.5475,-1.551,-1.5527,-1.5515,-1.5583,-1.5562,-1.5566,-1.5567,-1.5586,-1.5593,-1.56,-1.5515,-1.5515,-1.5514,0,0,-1.5409,-1.5417,-1.5444,-1.5453,-1.5465,-1.5464,-1.5471,-1.5481,-1.5482,-1.5513,-1.55,-1.5518,-1.5551,-1.556,-1.5568,-1.5621,-1.561,-1.5627,-1.5655,-1.5675,-1.5681,-1.5687,-1.5704,-1.5711,-1.5631,-1.5631,-1.5631,0,-1.5434,-1.5465,-1.546,-1.5484,-1.5494,-1.5479,-1.5507,-1.5515,-1.5533,-1.554,-1.5527,-1.5567,-1.5575,-1.5612,-1.5625,-1.5633,-1.564,-1.5625,-1.5681,-1.5686,-1.5691,-1.5708,-1.5715,-1.5633,-1.5633,-1.5633,-1.5633,0,-1.5495,-1.5516,-1.5537,-1.5553,-1.5566,-1.5592,-1.559,-1.5604,-1.5598,-1.56,-1.563,-1.5638,-1.5657,-1.5666,-1.5661,-1.5702,-1.5695,-1.5682,-1.5659,-1.57,-1.5716,-1.5722,-1.5636,-1.5635,-1.5635,-1.5634,0,0,-1.5561,-1.5574,-1.5582,-1.5588,-1.5601,-1.5617,-1.5642,-1.566,-1.5671,-1.5684,-1.5704,-1.5733,-1.5721,-1.5731,-1.5727,-1.5744,-1.5784,-1.5729,-1.5729,-1.5738,-1.5829,-1.5837,-1.5845,-1.5778,-1.5779,-1.578,-1.5827,0,-1.5609,-1.5652,-1.5648,-1.5689,-1.5708,-1.5695,-1.5717,-1.5726,-1.5728,-1.5745,-1.5747,-1.5767,-1.575,-1.5756,-1.5773,-1.5776,-1.5802,-1.5772,-1.5795,-1.5796,-1.5791,-1.5853,-1.5862,-1.5907,-1.5834,-1.5835,-1.5835,0,-1.5671,-1.5686,-1.5728,-1.5737,-1.5745,-1.5764,-1.578,-1.5796,-1.5807,-1.5807,-1.5819,-1.5812,-1.5836,-1.5814,-1.5848,-1.5828,-1.5837,-1.584,-1.5842,-1.5843,-1.5817,-1.5854,-1.5921,-1.5927,-1.5845,-1.5844,-1.5844,0,-1.5713,-1.5744,-1.5772,-1.5779,-1.579,-1.5804,-1.581,-1.5819,-1.583,-1.5844,-1.5851,-1.5868,-1.5877,-1.589,-1.5888,-1.5872,-1.5922,-1.59,-1.5922,-1.5922,-1.5932,-1.5931,-1.6,-1.5941,-1.5941,-1.5941,-1.594,0,-1.5767,-1.5793,-1.5791,-1.5809,-1.5838,-1.5833,-1.5862,-1.5866,-1.5874,-1.5892,-1.5883,-1.59,-1.5896,-1.5913,-1.5912,-1.594,-1.5944,-1.5944,-1.5943,-1.5944,-1.5944,-1.5949,-1.5945,-1.5942,-1.5942,-1.5942,-1.5941,0,-1.5818,-1.5818,-1.5849,-1.5857,-1.586,-1.588,-1.5887,-1.5904,-1.5905,-1.5928,-1.5933,-1.5935,-1.5955,-1.5954,-1.5977,-1.5976,-1.6009,-1.6005,-1.6005,-1.6004,-1.6025,-1.6023,-1.6098,-1.6107,-1.6044,-1.6045,-1.6045,0,-1.5852,-1.5872,-1.5882,-1.5893,-1.5899,-1.5918,-1.5928,-1.5925,-1.5937,-1.595,-1.5965,-1.5984,-1.5999,-1.6031,-1.6034,-1.6051,-1.6046,-1.6072,-1.6049,-1.6049,-1.6045,-1.6043,-1.6044,-1.6076,-1.6076,-1.6077,-1.6078,0,-1.5911,-1.591,-1.5926,-1.5942,-1.5955,-1.5967,-1.5979,-1.5989,-1.5986,-1.6,-1.602,-1.6031,-1.6054,-1.6072,-1.6088,-1.6094,-1.6085,-1.6085,-1.6091,-1.6091,-1.6089,-1.6089,-1.6016,-1.6083,-1.6082,-1.6082,-1.6082,-1.6081,-1.5953,-1.597,-1.5979,-1.5997,-1.6005,-1.6016,-1.6032,-1.6035,-1.6051,-1.6069,-1.6067,-1.6088,-1.6099,-1.6119,-1.6126,-1.6143,-1.6134,-1.6143,-1.6145,-1.6147,-1.6148,-1.6088,-1.6146,-1.6146,-1.6146,-1.6146,-1.6146,0,-1.6011,-1.6016,-1.6033,-1.6049,-1.6063,-1.6054,-1.6066,-1.6078,-1.6097,-1.6108,-1.6122,-1.6144,-1.6162,-1.6167,-1.6184,-1.6197,-1.6193,-1.6201,-1.6199,-1.62,-1.6156,-1.6149,-1.6204,-1.6204,-1.6204,-1.6204,-1.6204,-1.6204,-1.6042,-1.6069,-1.6069,-1.61,-1.6105,-1.6126,-1.6134,-1.6143,-1.6151,-1.6177,-1.6191,-1.6194,-1.6202,-1.622,-1.6235,-1.6236,-1.6242,-1.6252,-1.6251,-1.6209,-1.6204,-1.6198,-1.6191,-1.6254,-1.6254,-1.6294,-1.6294,-1.6294]},{"header":{"parameterUnit":"m.s-1","parameterCategory":1,"la1":30.2991,"la2":30.254,"lo1":-89.0895,"lo2":-89.0444,"dx":0.0017,"dy":0.0017,"nx":28,"ny":28,"refTime":"2022-12-05T15:00:00:Z","depth":0,"parameterNumber":3,"parameterNumberName":"V-component_of_WINDS"},"data":[0,0,0,0,0,0,0,0,0,0,0,0,0,0,0,0,0,0,0,0,0,0,0,0,0,0,0,0,0,0,0,0,0,0,0,0,0,0,0,0,0,0,0,0,0,0,0,0,0,0,0,0,0,0,0,0,0,0,2.9079,2.9079,0,2.9079,2.9079,2.9079,2.9062,2.9061,2.9061,2.906,2.9059,2.9059,2.9059,0,0,0,0,0,0,0,0,0,0,0,0,0,2.9064,2.9065,2.9079,2.9079,2.9079,2.9079,2.9079,2.9079,2.9062,2.9061,2.9061,2.906,2.9059,2.9059,2.9059,0,0,0,0,0,0,0,0,0,0,0,0,0,2.9068,2.9065,2.9079,2.9071,2.907,2.9079,2.9079,2.9079,2.9062,2.9061,2.9061,2.906,2.9058,2.9059,2.9059,2.9076,0,0,2.9061,2.9061,0,0,0,0,0,0,0,0,2.9068,2.9069,2.9072,2.9071,2.907,2.907,2.9073,2.9078,2.9062,2.9065,2.906,2.906,2.9063,2.9063,2.9064,2.9076,2.9076,2.9061,2.9062,2.9062,2.9062,0,0,0,0,0,0,0,2.9068,2.9069,2.9079,2.9072,2.9071,2.9067,2.9066,2.9074,2.9067,2.9065,2.9063,2.9064,2.9062,2.9064,2.9064,2.9076,2.9061,2.9062,2.9062,2.9062,2.9105,2.9106,0,0,0,0,0,0,2.9069,2.9068,2.9079,2.9079,2.9067,2.9068,2.9067,2.9071,2.9067,2.9066,2.9064,2.9063,2.9063,2.9064,2.9064,2.9086,2.9062,2.9062,2.9063,2.9104,2.9105,2.9106,0,0,0,0,0,0,2.9068,2.907,2.9079,2.9073,2.9074,2.9068,2.9072,2.9071,2.9073,2.9067,2.9066,2.9067,2.9063,2.9063,2.9074,2.9085,2.9063,2.9063,2.9103,2.9104,2.9105,2.9128,0,0,0,0,0,0,2.9068,2.907,2.9076,2.9074,2.9075,2.9089,2.9073,2.9071,2.9074,2.9072,2.907,2.9068,2.9062,2.9073,2.9075,2.9086,2.9063,2.9102,2.9104,2.9105,2.9126,2.913,2.9133,0,0,0,0,0,2.9068,2.9081,2.9076,2.9078,2.9082,2.909,2.909,2.9083,2.9075,2.9081,2.9078,2.9069,2.9084,2.9075,2.9076,2.9087,2.9101,2.9103,2.9105,2.9125,2.9129,2.9133,0,0,0,0,0,0,2.9084,2.9081,2.9075,2.9089,2.909,2.9087,2.9095,2.9088,2.9091,2.9089,2.908,2.9079,2.9092,2.909,2.9081,2.9105,2.9091,2.9093,2.9106,2.911,2.9113,2.9114,2.9064,0,0,0,0,0,2.9089,2.9096,2.9093,2.9105,2.9106,2.91,2.9103,2.9098,2.9099,2.9099,2.9096,2.9097,2.9102,2.9105,2.911,2.9126,2.9126,2.9134,2.9137,2.914,2.9143,2.9153,2.9158,2.9112,2.9112,2.9112,0,0,2.91,2.9099,2.9104,2.9108,2.9108,2.9116,2.9101,2.9108,2.9114,2.91,2.9111,2.9109,2.9109,2.9124,2.913,2.9122,2.9155,2.9142,2.9145,2.9146,2.9156,2.916,2.9164,2.9113,2.9113,2.9112,0,0,2.9124,2.9123,2.9135,2.9136,2.9137,2.9133,2.9136,2.9135,2.9134,2.9145,2.9135,2.9141,2.915,2.9151,2.9153,2.918,2.9172,2.9181,2.9199,2.921,2.9213,2.9216,2.9228,2.9232,2.9183,2.9183,2.9183,0,2.9137,2.9148,2.9141,2.9151,2.9154,2.9142,2.9154,2.9155,2.9157,2.916,2.9152,2.9164,2.9163,2.9179,2.9186,2.9187,2.9191,2.9182,2.9213,2.9216,2.9219,2.923,2.9235,2.9185,2.9184,2.9184,2.9184,0,2.9165,2.9173,2.9182,2.9187,2.919,2.9201,2.9196,2.9201,2.9196,2.9193,2.9206,2.9205,2.921,2.9213,2.9207,2.9228,2.9224,2.9215,2.9201,2.9225,2.9236,2.924,2.9187,2.9186,2.9186,2.9185,0,0,2.9199,2.92,2.9204,2.9207,2.9208,2.9214,2.9225,2.9231,2.9236,2.9238,2.9248,2.9257,2.9249,2.9251,2.9246,2.9255,2.9279,2.9245,2.9245,2.9253,2.9305,2.9314,2.9319,2.9274,2.9274,2.9275,2.9306,0,2.9223,2.9243,2.9238,2.9257,2.9265,2.9255,2.9265,2.9267,2.9266,2.9273,2.9271,2.9278,2.9266,2.9268,2.9276,2.9274,2.929,2.9272,2.9284,2.9284,2.9286,2.9324,2.9332,2.9361,2.931,2.931,2.9311,0,2.9254,2.926,2.9281,2.9283,2.9286,2.9295,2.9302,2.9308,2.9311,2.9309,2.9313,2.9307,2.9318,2.9304,2.932,2.9308,2.9313,2.9313,2.9314,2.9316,2.93,2.9328,2.937,2.9375,2.9317,2.9316,2.9316,0,2.928,2.9292,2.9306,2.9309,2.9311,2.9318,2.932,2.9322,2.9327,2.9332,2.9335,2.9342,2.9345,2.9351,2.9346,2.9336,2.9364,2.9349,2.9365,2.9365,2.9372,2.9372,2.9417,2.9372,2.9372,2.9372,2.9372,0,2.9309,2.9322,2.9318,2.9327,2.9342,2.9337,2.9352,2.9352,2.9355,2.9364,2.9355,2.9364,2.9357,2.9366,2.9362,2.9378,2.9379,2.9379,2.9378,2.9381,2.9381,2.9385,2.9383,2.9373,2.9373,2.9372,2.9372,0,2.9339,2.9337,2.9353,2.9355,2.9355,2.9367,2.9369,2.9378,2.9376,2.9388,2.9391,2.9389,2.9399,2.9395,2.9405,2.9403,2.9423,2.9419,2.9423,2.9422,2.9439,2.9438,2.9489,2.9497,2.9445,2.9446,2.9446,0,2.9358,2.9369,2.9373,2.9379,2.9382,2.9391,2.9397,2.9392,2.9398,2.9404,2.9413,2.9422,2.943,2.9446,2.9446,2.9454,2.9451,2.9468,2.9452,2.9455,2.9454,2.9454,2.9456,2.9472,2.9472,2.9473,2.9473,0,2.9394,2.9393,2.9401,2.9411,2.9418,2.9424,2.943,2.9435,2.9431,2.9439,2.945,2.9456,2.9467,2.9478,2.9486,2.9487,2.948,2.9478,2.9483,2.9486,2.9489,2.949,2.9434,2.9477,2.9477,2.9476,2.9476,2.9476,2.9421,2.9431,2.9436,2.9446,2.9451,2.9457,2.9466,2.9467,2.9476,2.9486,2.9482,2.9496,2.95,2.9511,2.9513,2.9524,2.9517,2.9523,2.9525,2.9527,2.953,2.9486,2.9525,2.9525,2.9525,2.9525,2.9525,0,2.9457,2.9461,2.9471,2.948,2.9489,2.9482,2.9489,2.9497,2.9509,2.9514,2.9522,2.9536,2.9547,2.9547,2.9558,2.9566,2.9563,2.9569,2.9569,2.957,2.9534,2.9531,2.9571,2.9571,2.9571,2.9571,2.9571,2.9571,2.9478,2.9495,2.9495,2.9515,2.9518,2.9532,2.9537,2.9543,2.9547,2.9564,2.9573,2.9574,2.9578,2.9589,2.9599,2.9599,2.9604,2.9611,2.961,2.9577,2.9572,2.9568,2.9565,2.9612,2.9612,2.9645,2.9646,2.9646]}]]